Regional Weather Roundup
Issued by NWS San Diego, CA

Home | Current Version | Previous Version | Text Only | Print | Product List | Glossary On
Versions: 1 2 3 4 5 6 7 8 9 10 11 12 13 14 15 16 17 18 19 20 21 22 23 24 25 26 27
000
ASUS46 KSGX 240611
RWRSGX

SAN DIEGO HOURLY WEATHER ROUNDUP
NATIONAL WEATHER SERVICE SAN DIEGO CA
1000 PM PST THU FEB 23 2017

NOTE: "FAIR" INDICATES FEW OR NO CLOUDS BELOW 12,000 FEET WITH NO
SIGNIFICANT WEATHER AND/OR OBSTRUCTIONS TO VISIBILITY.

CAZ042-043-060-061-PZZ750-775-240700-

GREATER SAN DIEGO AREA

CITY           SKY/WX    TMP DP  RH WIND       PRES   REMARKS
SAN DIEGO AP   PTCLDY    54  35  48 E5        30.14R
NATIONAL CITY    N/A     50  40  68 CALM      30.13R
CHULA VISTA      N/A     46  41  81 CALM      30.06R
IMPERIAL BEACH PTCLDY    56  39  53 E5        30.13R
BROWN FIELD    CLEAR     46  39  76 NE3       30.12R
MIRAMAR MCAS   PTCLDY    49  37  63 E5        30.11S
MONTGOMERY FLD CLEAR     46  37  71 SE5       30.12R

$$

NORTH SAN DIEGO COUNTY

CITY           SKY/WX    TMP DP  RH WIND       PRES   REMARKS
CAMP PENDLETON PTCLDY    43  39  86 NE3       30.12R
OCEANSIDE AP   CLEAR     43  39  86 CALM      30.11R
OCEANSIDE HBR    N/A     48  39  71 E6        30.14R
VISTA            N/A     47  39  75 CALM      30.09S
CARLSBAD       MOCLDY    50  37  61 SE5       30.10S
DEL MAR          N/A     49  39  69 CALM      30.14S
LA JOLLA SCRIP   N/A     51  38  62 E3        30.12R
FALLBROOK        N/A     45  40  83 CALM      30.09S
ESCONDIDO        N/A     47  37  66 E1        30.14R
SAN MARCOS       N/A     48  38  68 CALM      30.13S
POWAY            N/A     41  36  82 CALM      30.15S

$$

EAST SAN DIEGO COUNTY

CITY           SKY/WX    TMP DP  RH WIND       PRES   REMARKS
RAMONA         PTCLDY    38  36  92 NE3       30.10S
SANTEE LAKES     N/A     42  37  84 CALM      30.13R
LA MESA          N/A     47  37  69 CALM      30.06S
JAMUL            N/A     40  36  86 CALM      30.14S
DESCANSO N       N/A     35  31  87 CALM      30.08R
CAMPO            N/A     35  33  92 CALM      30.04R

$$

ORANGE COUNTY AND THE LOS ANGELES BASIN

CITY           SKY/WX    TMP DP  RH WIND       PRES   REMARKS
JOHN WAYNE AP  PTCLDY    51  40  65 CALM      30.10R
LAGUNA BEACH     N/A    N/A N/A N/A NW3       30.05S
LAKE FOREST FR   N/A     44  32  62 CALM      30.00S
HUNTINGTON BCH   N/A     48  30  50 CALM      30.11S
LOS ALAMITOS   CLEAR     47  30  52 CALM      30.09R
FULLERTON      CLEAR     49  29  46 CALM      30.09R
LONG BEACH     CLEAR     51  16  24 W5        30.09S
L.A. AP        CLEAR     51  16  24 N9        30.10R
L.A. DOWNTOWN  CLEAR     52  15  23 NW5       30.08F

$$

THE INLAND EMPIRE

CITY           SKY/WX    TMP DP  RH WIND       PRES   REMARKS
CORONA         CLEAR     42  33  70 CALM      30.09R
CHINO          CLEAR     45  35  68 N3        30.10R
ONTARIO        PTCLDY    46  33  60 CALM      30.08R
SAN BERNARDINO FAIR      45  32  61 SE6       30.09
RIVERSIDE AP   CLEAR     46  33  60 E5        30.09R
MORENO VALLEY    N/A     41  37  83 CALM      28.20S
MARCH ARB      CLEAR     41  38  91 S5        30.08R
HORSETHIEF CYN   N/A     40  29  63 CALM      30.12R
PERRIS           N/A     42  39  87 E3        30.10R
HEMET EAST       N/A     40  30  66 CALM      30.18R
FRENCH VALLEY  FAIR      43  34  70 CALM      30.09R
TEMECULA         N/A     46  39  76 S3        30.14R

$$

SAN BERNARDINO AND RIVERSIDE COUNTY MOUNTAINS

CITY           SKY/WX    TMP DP  RH WIND       PRES   REMARKS
BIG BEAR AP    CLEAR     25  19  80 W6        29.98S WCI  18
PINE COVE        N/A     25  24  96 N3        30.12S

$$

SOUTHERN DESERT INCLUDING THE COACHELLA VALLEY

CITY           SKY/WX    TMP DP  RH WIND       PRES   REMARKS
PALM SPRINGS   CLEAR     57  30  35 W14G23    30.02R
PALM DESERT      N/A     54  33  45 CALM        N/A
THERMAL        CLEAR     57  31  37 N13G22    30.00R
BLYTHE         CLEAR     50  33  52 NW9       30.01R
IMPERIAL AP    CLEAR     53  34  48 W13       30.01R
EL CENTRO NAS  CLEAR     54  31  41 W17       30.04R
YUMA AZ        CLEAR     54  35  48 W8        30.01
MEXICALI       CLEAR     54  34  47 W9        30.02R

$$

UPPER DESERT

CITY           SKY/WX    TMP DP  RH WIND       PRES   REMARKS
VICTORVILLE AP CLEAR     34  21  60 W10       30.07R WCI  26
HESPERIA         N/A     35  22  60 CALM      30.27S
PALMDALE       CLEAR     37  22  54 W10       30.10R WCI  30
LANCASTER      CLEAR     36  25  64 W16       30.10R WCI  26
EDWARDS AFB    CLEAR     37  23  56 W16       30.06R WCI  28
DAGGETT        CLEAR     41  21  44 W17       30.06R
29 PALMS N     CLEAR     42  21  43 NW7       30.12R
NEEDLES        CLEAR     53  22  29 W7        30.00R

$$

REGIONAL REPORTS

CITY           SKY/WX    TMP DP  RH WIND       PRES   REMARKS
SANTA BARBARA  CLEAR     48  32  53 N8        30.12S
SANDBERG       CLEAR     30  17  58 N31G40    30.04R WCI  15
LAS VEGAS NV   PTCLDY    48   5  17 NW7       29.97R
PHOENIX AZ     CLEAR     50  28  42 SW6       29.97R
TIJUANA        PTCLDY    48  36  61 CALM      30.15R
ENSENADA NW      N/A     50  32  49 N7        30.11R

$$

OFFSHORE ISLANDS

CITY           SKY/WX    TMP DP  RH WIND       PRES   REMARKS
CATALINA ARPT  CLEAR     46  41  82 NW10      30.09R
SAN NICOLAS IS PTCLDY   N/A N/A N/A NW24G31   30.12R

$$

MARINE AND OFFSHORE BUOY REPORTS

STATION/POSITION SKY/WX   TEMP    WIND        PRES    VSBY  SWELL
                          AIR SEA DIR/SP/G                  HT/PER/DIR
                          (F)     (DEG/KT/KT) (MB)    (MI)  (FT/S/D)
TANNER BANKS               54 59  320/ 25/ 29 1020.4R         3/300/13
S CLEMENTE BASIN           54 59  330/ 14/ 17 1020.0R         7/290/ 9
SAN NICOLAS IS.               55                N/A           3/290/11
SO. S. ROSA ISLA           52 56  320/ 25/ 31 1020.3S         7/300/ 8
W. S. BARBARA CH           53 56  330/ 23/ 27 1021.0R         5/290/ 9
M. S. BARBARA CH                  290/ 16/ 19 1020.5R
S. MONICA BASIN            55 58  300/ 19/ 23 1018.8R         3/270/13
S PEDRO CHANNEL               57                N/A           2/270/11
CMP PENDLETON NS              58                N/A           2/250/13
OCEANSIDE OFFSHR              58                N/A           2/270/11
TORREY PINES OTR              59                N/A           3/260/11
POINT LOMA SOUTH              59                N/A           3/260/13

$$





USA.gov is the U.S. government's official web portal to all federal, state and local government web resources and services.